This is the latest recevied weather packets stored in our database for station/object W8BS. If no packets are shown the sender has not sent any weather packets the latest 10 day(s).
| Time | Temp. | Humidity | Pressure | Rain* | Wind** | Luminosity | Snow |
|---|---|---|---|---|---|---|---|
| 1777917681 | 20.56° C | 53% | 1011.3 hPa | 0 mm | - | 722 W/m² | - |
| 1777917378 | 20° C | 54% | 1011.3 hPa | 0 mm | - | 710 W/m² | - |
| 1777917074 | 18.89° C | 56% | 1011.6 hPa | 0 mm | - | 715 W/m² | - |
| 1777916773 | 18.89° C | 57% | 1011.5 hPa | 0 mm | - | 180 W/m² | - |
| 1777916469 | 18.89° C | 57% | 1011.5 hPa | 0 mm | - | 216 W/m² | - |
| 1777916166 | 18.33° C | 58% | 1011.3 hPa | 0 mm | - | 291 W/m² | - |
| 1777915864 | 18.89° C | 57% | 1011.7 hPa | 0 mm | - | 180 W/m² | - |
| 1777915560 | 17.78° C | 59% | 1011.5 hPa | 0 mm | - | 804 W/m² | - |
| 1777915256 | 17.22° C | 60% | 1011.8 hPa | 0 mm | - | 690 W/m² | - |
| 1777914953 | 16.67° C | 60% | 1011.8 hPa | 0 mm | - | 329 W/m² | - |
| 1777914650 | 17.22° C | 60% | 1012.2 hPa | 0 mm | - | 457 W/m² | - |
| 1777914346 | 17.78° C | 59% | 1011.9 hPa | 0 mm | - | 293 W/m² | - |
| 1777914044 | 18.33° C | 59% | 1012.2 hPa | 0 mm | - | 298 W/m² | - |
| 1777913739 | 17.78° C | 58% | 1012.1 hPa | 0 mm | - | 824 W/m² | - |
| 1777913436 | 17.78° C | 59% | 1012.2 hPa | 0 mm | - | 758 W/m² | - |
| 1777913132 | 17.22° C | 60% | 1012.2 hPa | 0 mm | - | 279 W/m² | - |
| 1777912829 | 17.78° C | 59% | 1012.4 hPa | 0 mm | - | 490 W/m² | - |
| 1777912526 | 16.67° C | 60% | 1012.5 hPa | 0 mm | - | 473 W/m² | - |
| 1777912222 | 16.67° C | 60% | 1012.4 hPa | 0 mm | - | 609 W/m² | - |
| 1777911918 | 16.67° C | 60% | 1012.7 hPa | 0 mm | - | 323 W/m² | - |
| 1777911614 | 16.67° C | 60% | 1012.8 hPa | 0 mm | - | 411 W/m² | - |
| 1777911310 | 17.22° C | 58% | 1012.9 hPa | 0 mm | - | 305 W/m² | - |
| 1777911009 | 16.67° C | 58% | 1012.8 hPa | 0 mm | - | 406 W/m² | - |
| 1777910706 | 17.22° C | 58% | 1012.8 hPa | 0 mm | - | 390 W/m² | - |
| 1777910402 | 16.67° C | 57% | 1012.6 hPa | 0 mm | - | 806 W/m² | - |
* Rain latest hour (hover to see other rain measurements)
** Current wind speed in m/s (hover to see current wind gust speed)